Terug naar catalogus

FENGYUN 1C DEB

LostSSO
NORAD 30904·DEBRIS·🇨🇳 China

Gelanceerd May 10, 1999 vanaf Taiyuan Satellite Launch Center

Loading…

Volgende Passages (komende 24 uur)

TLE

VerouderdSource: Space-Track

Epoch: Mar 29, 2010, 17:54 UTC

1 30904U 99025AYS 10088.74591438  .00000216  00000-0  16776-3 0  9998
2 30904  99.0437  78.4462 0093349  81.8083 282.9943 14.00675834157566

Volg FENGYUN 1C DEB in realtime met AllMySat

Download on the App Store